Home > Weather > Rennes > Past weeks

Flag for France Weather for the Past 2 Weeks in Rennes, France

Now
46 °F

Partly sunny.


Feels Like: 40 °F
Forecast: 47 / 53 °F
Wind: 16 mph from Southwest

Location: Rennes Airport

Current Time: Feb 7, 2016 at 5:29:34 PM

Latest Report: Feb 7, 2016 at 5:00 PM


Visibility: N/A

Pressure: 29.71 "Hg

Humidity: 82%

Dew point: 41 °F

Location of RennesLocation

Historic Weather in Rennes — Graph

°F

Rennes Temperature Yesterday

Maximum temperature yesterday: 57 °F (at 3:00 PM)
Minimum temperature yesterday: 46 °F (at 11:00 PM)
Average temperature yesterday: 52 °F

High & Low Weather Summary for the Past Weeks

 TemperatureHumidityPressure
High63 °F (Jan 24, 2:00 PM)100% (Jan 23, 11:30 PM)30.57 "Hg (Jan 23, 11:30 PM)
Low36 °F (Jan 28, 11:00 PM)50% (Feb 3, 3:00 PM)29.36 "Hg (Feb 6, 8:30 PM)
Average50 °F85%30.20 "Hg
* Reported Jan 23 4:00 PM — Feb 7 4:00 PM, Rennes, Weather by CustomWeather, © 2016

Note: Actual official high and low records may vary slightly from our data, if they occured in-between our weather recording intervals... More about our weather records

Advertising

Rennes Weather History for the Previous 24 Hours

 ConditionsComfort  
Time TempWeatherWind HumidityBarometerVisibility
4:00 PM
Sun, Feb 7
48 °FLight rain. Partly sunny.17 mph71%29.71 "HgN/A
3:30 PM50 °FScattered clouds.16 mph62%29.68 "HgN/A
3:00 PM52 °FPartly sunny.16 mph62%29.68 "HgN/A
2:30 PM52 °FSunny.16 mph62%29.71 "Hg10 mi
2:00 PM50 °FPartly sunny.20 mph67%29.71 "HgN/A
1:30 PM52 °FBroken clouds.16 mph62%29.68 "HgN/A
1:00 PM52 °FPartly sunny.12 mph58%29.71 "HgN/A
12:30 PM50 °FScattered clouds.18 mph62%29.68 "HgN/A
12:00 PM50 °FPartly sunny.17 mph67%29.68 "HgN/A
11:30 AM48 °FSunny.14 mph71%29.68 "Hg10 mi
11:00 AM46 °FSunny.13 mph76%29.65 "Hg10 mi
10:30 AM45 °FPassing clouds.10 mph81%29.65 "HgN/A
10:00 AM45 °FSunny.8 mph81%29.65 "Hg10 mi
9:30 AM43 °FBroken clouds.8 mph81%29.62 "HgN/A
9:00 AM39 °FSunny.7 mph87%29.62 "Hg10 mi
8:30 AM39 °FSunny.6 mph81%29.62 "Hg10 mi
8:00 AM41 °FClear.7 mph81%29.59 "Hg10 mi
7:30 AM41 °FClear.7 mph81%29.59 "Hg10 mi
7:00 AM41 °FClear.7 mph81%29.56 "Hg10 mi
6:30 AM41 °FClear.8 mph81%29.56 "Hg10 mi
6:00 AM41 °FClear.8 mph81%29.56 "Hg10 mi
5:30 AM43 °FPassing clouds.9 mph76%29.53 "HgN/A
5:00 AM41 °FPassing clouds.8 mph87%29.53 "HgN/A
4:30 AM41 °FPassing clouds.8 mph87%29.53 "HgN/A
4:00 AM41 °FClear.7 mph87%29.50 "Hg10 mi
3:30 AM43 °FPassing clouds.8 mph87%29.50 "HgN/A
3:00 AM41 °FPassing clouds.7 mph93%29.50 "HgN/A
2:30 AM43 °FPassing clouds.6 mph87%29.47 "HgN/A
2:00 AM43 °FPassing clouds.8 mph87%29.47 "HgN/A
1:30 AM45 °FClear.9 mph87%29.45 "Hg10 mi
1:00 AM46 °FClear.12 mph82%29.45 "Hg10 mi
12:30 AM46 °FOvercast.10 mph82%29.42 "HgN/A
12:00 AM46 °FPassing clouds.12 mph87%29.42 "HgN/A
11:30 PM
Sat, Feb 6
46 °FPartly cloudy.12 mph93%29.42 "HgN/A
11:00 PM46 °FLight rain. Passing clouds.12 mph87%29.39 "HgN/A
10:00 PM50 °FMostly cloudy.15 mph88%29.39 "HgN/A
9:30 PM50 °FLight rain. Mostly cloudy.24 mph88%29.36 "HgN/A
9:00 PM50 °FLight rain. Passing clouds.29 mph88%29.36 "HgN/A
8:30 PM50 °FRain. Passing clouds.25 mph88%29.36 "HgN/A
8:00 PM50 °FLight rain. Mostly cloudy.28 mph88%29.39 "HgN/A
7:30 PM50 °FLight rain. Mostly cloudy.28 mph88%29.39 "HgN/A
7:00 PM50 °FRain. Partly cloudy.28 mph88%29.42 "Hg5 mi
6:30 PM54 °FPassing clouds.22 mph72%29.42 "HgN/A
6:00 PM54 °FBroken clouds.24 mph72%29.42 "HgN/A
5:30 PM54 °FPartly sunny.25 mph72%29.45 "HgN/A
5:00 PM54 °FPartly sunny.29 mph72%29.47 "HgN/A
Weather by CustomWeather, © 2016

See weather overviewHow to use our weather pages